Terminal Aerodrome Forecast
Issued by NWS Wilmington, OH

Current Version | Previous Version | Graphics & Text | Print | Product List | Glossary On
Versions: 1 2 3 4 5 6 7 8 9 10 11 12 13 14 15 16 17 18 19 20 21 22 23 24
000
FTUS41 KILN 231720
TAFCMH
TAF
KCMH 231720Z 2318/2418 22010G20KT 2SM SHRA VCTS OVC022CB
     FM240000 20006KT 4SM SHRA OVC029
     FM240100 28005KT P6SM VCSH OVC030
     FM240600 27006KT P6SM SCT250
     FM241400 29012KT P6SM SCT040=

USA.gov is the U.S. government's official web portal to all federal, state and local government web resources and services.